DECAYED

CZ-6A DEB, 61148 (Decayed)

Orbit data source: Space-Track

CZ-6A DEB, 61148 was space debris in LEO originally from a launch on Tue, 06 Aug 2024 UTC launched from the Taiyaun Space Center, China (TSC). Debris objects in space refer to the collection of defunct objects orbiting the Earth. Examples of debris include non-operational satellites, rocket bodies, and fragments generated from explosions, collisions, or faulty payload assembly.

Not visible in the next 10 days
Identifier
61148, 2024-140QS
Orbit
Decayed
Country
Flag of CNCN / PRC
Related business
Manufacturer
SAST
Mission
Decayed spacecraft
Bus & Motor
Unknown
Mass
Unknown
Launch date (UTC)
2024-08-06 (1 year ago)
Launch vehicle
Unknown
Launch site
Taiyaun Space Center, China (TSC)
Object type
Payload
Rocket body
Debris
Shape & HBR
Unknown shape, 0.1 m
Radar Cross Section
Small (<0.1 m²)

Expand to show TLE details & history
Last TLE update: 4 months ago

TLE from 4 months ago
0 CZ-6A DEB
1 61148U 24140QS  25235.20476961  .10684693 -11560-5  23062-2 0  9994
2 61148  89.2170 311.1443 0009055 358.0032   2.1235 16.30646909 55755
Epoch: 2025-08-23T04:54Z
TLE epoch observation values (Epoch: 2025-08-23T04:54:52.094Z)
Latitude
-0.00004°
Longitude
-94.31564°
Altitude
188.205 km
Speed
7.797 km/s
True Right ascension
20h 44m 34s
True Declination
0° 00' 00"
Sunlit
Object was in full shadow at epoch
Visualization orbit readout
Latitude
Unknown
Longitude
Unknown
Altitude
Unknown
Speed
Unknown
Apparent Right ascension
Unknown
Apparent Declination
Unknown
Sunlit
N/A
Visualization observer readout
Local Sidereal Time
10:09:52
Azimuth
Unknown
Elevation
Unknown
Doppler factor
Unknown
Orbital elements
Apogee altitude
193.402 km
Perigee altitude
181.512 km
Semi-major axis
6,565.594 km
Eccentricity
0.00091
Inclination
89.217°
RAAN
311.1443°
Arg. of periapsis
358.0032°
True anomaly
2.12735°
Mean anomaly
2.1235°
Eccentric anomaly
2.12542°
Mean motion
4.07974 °/min
Orbital period
88.24 mins
BSTAR
0.0023062
Loading maneuver chart data...
Computing Atmospheric mass density...

Documentation

Showing up to 5 results
|